This is the latest recevied weather packets stored in our database for station/object KD4PMP. If no packets are shown the sender has not sent any weather packets the latest 10 day(s).
| Time | Temp. | Humidity | Pressure | Rain* | Wind** | Luminosity | Snow |
|---|---|---|---|---|---|---|---|
| 1788215092 | 36.67° C | 48% | 1015.9 hPa | 0 mm | - | - | - |
| 1788214486 | 36.67° C | 48% | 1015.9 hPa | 0 mm | - | - | - |
| 1788213880 | 36.67° C | 47% | 1015.9 hPa | 0 mm | - | - | - |
| 1788213273 | 36.67° C | 46% | 1016 hPa | 0 mm | - | - | - |
| 1788212667 | 37.22° C | 47% | 1015.9 hPa | 0 mm | - | - | - |
| 1788212061 | 37.22° C | 46% | 1016.2 hPa | 0 mm | - | - | - |
| 1788211454 | 37.22° C | 47% | 1016.1 hPa | 0 mm | - | - | - |
| 1788210848 | 36.67° C | 48% | 1016.3 hPa | 0 mm | - | - | - |
| 1788210242 | 36.67° C | 48% | 1016.3 hPa | 0 mm | - | - | - |
| 1788209635 | 36.11° C | 49% | 1016.4 hPa | 0 mm | - | - | - |
| 1788209028 | 37.22° C | 46% | 1016.4 hPa | 0 mm | - | - | - |
| 1788208422 | 36.67° C | 47% | 1016.4 hPa | 0 mm | - | - | - |
| 1788207816 | 36.67° C | 49% | 1016.5 hPa | 0 mm | - | - | - |
| 1788207209 | 36.67° C | 49% | 1016.6 hPa | 0 mm | - | - | - |
| 1788206603 | 36.11° C | 50% | 1016.7 hPa | 0 mm | - | - | - |
| 1788205997 | 36.11° C | 50% | 1016.8 hPa | 0 mm | - | - | - |
| 1788205390 | 35.56° C | 52% | 1017 hPa | 0 mm | - | - | - |
| 1788204784 | 35° C | 54% | 1017.1 hPa | 0 mm | - | - | - |
| 1788204178 | 35° C | 53% | 1017.2 hPa | 0 mm | - | - | - |
| 1788203571 | 35.56° C | 54% | 1017.3 hPa | 0 mm | - | - | - |
| 1788202965 | 35° C | 53% | 1017.4 hPa | 0 mm | - | - | - |
| 1788202358 | 35.56° C | 53% | 1017.4 hPa | 0 mm | - | - | - |
| 1788201751 | 35.56° C | 51% | 1017.5 hPa | 0 mm | - | - | - |
| 1788201144 | 35.56° C | 52% | 1017.5 hPa | 0 mm | - | - | - |
| 1788200537 | 34.44° C | 54% | 1017.7 hPa | 0 mm | - | - | - |
* Rain latest hour (hover to see other rain measurements)
** Current wind speed in m/s (hover to see current wind gust speed)